This is the latest recevied weather packets stored in our database for station/object AD8BV. If no packets are shown the sender has not sent any weather packets the latest 10 day(s).
| Time | Temp. | Humidity | Pressure | Rain* | Wind** | Luminosity | Snow |
|---|---|---|---|---|---|---|---|
| 1777700720 | 3.89° C | 70% | 1019 hPa | 0 mm | - | 0 W/m² | - |
| 1777700416 | 3.89° C | 70% | 1019.2 hPa | 0 mm | - | 0 W/m² | - |
| 1777700113 | 3.89° C | 70% | 1019.1 hPa | 0 mm | - | 0 W/m² | - |
| 1777699811 | 3.89° C | 70% | 1019.1 hPa | 0 mm | - | 0 W/m² | - |
| 1777699509 | 3.89° C | 72% | 1019.3 hPa | 0 mm | - | 0 W/m² | - |
| 1777699207 | 3.89° C | 73% | 1019 hPa | 0 mm | - | 0 W/m² | - |
| 1777698905 | 3.89° C | 73% | 1019 hPa | 0 mm | - | 0 W/m² | - |
| 1777698601 | 3.89° C | 72% | 1019.1 hPa | 0 mm | - | 0 W/m² | - |
| 1777698298 | 3.89° C | 71% | 1019 hPa | 0 mm | - | 0 W/m² | - |
| 1777697996 | 3.89° C | 70% | 1019.1 hPa | 0 mm | - | 0 W/m² | - |
| 1777697692 | 3.89° C | 70% | 1019.2 hPa | 0 mm | - | 0 W/m² | - |
| 1777697389 | 3.89° C | 69% | 1019.1 hPa | 0 mm | - | 0 W/m² | - |
| 1777697084 | 4.44° C | 71% | 1018.9 hPa | 0 mm | - | 0 W/m² | - |
| 1777696782 | 4.44° C | 69% | 1018.7 hPa | 0 mm | - | 0 W/m² | - |
| 1777696480 | 4.44° C | 66% | 1018.8 hPa | 0 mm | - | 0 W/m² | - |
| 1777696179 | 4.44° C | 67% | 1018.6 hPa | 0 mm | - | 0 W/m² | - |
| 1777695876 | 5° C | 67% | 1018.7 hPa | 0 mm | - | 0 W/m² | - |
| 1777695573 | 5° C | 65% | 1018.9 hPa | 0 mm | - | 0 W/m² | - |
| 1777695271 | 5° C | 65% | 1018.5 hPa | 0 mm | - | 0 W/m² | - |
| 1777694968 | 5° C | 65% | 1018.6 hPa | 0 mm | - | 0 W/m² | - |
| 1777694665 | 5° C | 65% | 1018.4 hPa | 0 mm | - | 0 W/m² | - |
| 1777694361 | 5° C | 68% | 1018.7 hPa | 0 mm | - | 0 W/m² | - |
| 1777694057 | 5° C | 66% | 1018.3 hPa | 0 mm | - | 0 W/m² | - |
| 1777693755 | 5° C | 67% | 1018.4 hPa | 0 mm | - | 0 W/m² | - |
| 1777693454 | 5° C | 68% | 1018.6 hPa | 0 mm | - | 0 W/m² | - |
* Rain latest hour (hover to see other rain measurements)
** Current wind speed in m/s (hover to see current wind gust speed)